User: anonymous   Login
Location: Unspecified
(0.0000°N, 0.0000°E)
Time: 04:47:32
(UTC+01:00)
Language:

Cosmos 1538 Rocket - Orbit

View from above orbital plane
View from above orbital plane
View from above satellite
View from above satellite

Ground track
Ground track

The orbit data is extracted from the following two-line orbital elements,

1 14760U 84019B   14356.19365887  .00000486  00000-0  17672-3 0  4951
2 14760 074.0448 347.2844 0026764 068.5731 010.8391 14.35602156613278
Epoch (UTC): 22 December 2014 04:38:52
Eccentricity: 0.0026764
inclination: 74.0448°
perigee height: 754 km
apogee height: 792 km
right ascension of ascending node: 347.2844°
argument of perigee: 68.5731°
revolutions per day: 14.35602156
mean anomaly at epoch: 10.8391°
orbit number at epoch: 61327

The dashed part of the orbit path shows where the satellite is in the earth's shadow,  

DLR